Voltar ao catálogo

CONTINUUM-1

AtivoCiênciaSSO
NORAD 55045·PAYLOAD·🇦🇺 Australia

Lançado Jan 3, 2023 de Cape Canaveral Space Force Station

Loading…

Próximas Passagens (próximas 24 horas)

TLE

AtualizadoSource: Space-Track

Época: Sep 14, 2026, 14:38 UTC

1 55045U 23001AN  26257.60986469  .00009443  00000-0  29605-3 0  9990
2 55045  97.3270 319.7634 0009797 124.3135 235.9036 15.33231282205941

Acompanhe CONTINUUM-1 em tempo real com AllMySat

Download on the App Store